sat.trackr.live / text

‹ back to catalog

STARLINK-36951

NORAD 67990 · 2026-039E

PAYLOAD ACTIVE UNKNOWN

§ Identity

Operator
Country
US
Launch date
2026-02-27
Launch site
AFETR
Launch vehicle
Mass (kg)
RCS (m²)

Purposes: comms

External: N2YO · Heavens-Above · Gunter

§ Orbital elements

Epoch: 2026-09-17T16:18:20.143584Z

Period
94.27 min
Inclination
43.0042°
Eccentricity
0.0002559
Mean motion
15.27607256 rev/d
Perigee alt
481.2 km
Apogee alt
484.7 km
Semi-major
6,861.1 km
B*
6.1593e-4
RAAN
44.8623°
Arg perigee
270.3392°
Mean anomaly
89.7166°
Rev number
3,106

§ Raw data

STARLINK-369511 67990U 26039E   26260.67939981  .00016740  00000+0  61593-3 0  99932 67990  43.0042  44.8623 0002559 270.3392  89.7166 15.27607256 31068

JSON: /api/v1/satellites/67990 · /tle

For live sub-satellite position, see the globe view (requires WebGL).

§ Visibility from observer

Set your observer location to see the next 7 days of passes ≥ 10°. The values pass through the URL so the page stays shareable.

No JS? Fill the form by hand. The geolocation button needs JavaScript.